| time (UTC) | temp C | wind direction | speed KPH | gust KPH | rain 1hr cm | rain 24hr cm | rain mn cm | humidity % | barometer mb |
| 20260906105514 | 21 | 77 | 1.6 | 3.2 | 0.00 | 0.00 | 0.00 | 98 | 1012.4 |
| 20260906105010 | 21 | 77 | 0.0 | 0.0 | 0.00 | 0.00 | 0.00 | 98 | 1012.7 |
| 20260906104509 | 21 | 77 | 0.0 | 0.0 | 0.00 | 0.00 | 0.00 | 98 | 1012.4 |
| 20260906104009 | 21 | 77 | 0.0 | 0.0 | 0.00 | 0.00 | 0.00 | 98 | 1012.5 |
| 20260906103507 | 21 | 77 | 0.0 | 0.0 | 0.00 | 0.00 | 0.00 | 97 | 1012.5 |
| 20260906103002 | 21 | 77 | 0.0 | 0.0 | 0.00 | 0.00 | 0.00 | 97 | 1012.4 |
| 20260906102457 | 22 | 77 | 0.0 | 0.0 | 0.00 | 0.00 | 0.00 | 97 | 1012.4 |
| 20260906101956 | 22 | 77 | 0.0 | 1.6 | 0.00 | 0.00 | 0.00 | 97 | 1012.3 |
| 20260906101452 | 22 | 77 | 0.0 | 0.0 | 0.00 | 0.00 | 0.00 | 97 | 1012.2 |
| 20260906100947 | 22 | 77 | 0.0 | 0.0 | 0.00 | 0.00 | 0.00 | 96 | 1012.3 |
| 20260906100442 | 22 | 77 | 0.0 | 0.0 | 0.00 | 0.00 | 0.00 | 96 | 1012.4 |
| 20260906095942 | 22 | 77 | 0.0 | 1.6 | 0.00 | 0.00 | 0.00 | 96 | 1012.2 |
| 20260906095437 | 22 | 77 | 1.6 | 1.6 | 0.00 | 0.00 | 0.00 | 96 | 1012.0 |
| 20260906094932 | 22 | 77 | 0.0 | 0.0 | 0.00 | 0.00 | 0.00 | 96 | 1012.1 |
| 20260906094426 | 22 | 77 | 0.0 | 0.0 | 0.00 | 0.00 | 0.00 | 96 | 1012.0 |
| 20260906093922 | 22 | 77 | 0.0 | 0.0 | 0.00 | 0.00 | 0.00 | 95 | 1012.1 |
| 20260906093419 | 22 | 77 | 0.0 | 1.6 | 0.00 | 0.00 | 0.00 | 95 | 1011.9 |
| 20260906092918 | 22 | 77 | 0.0 | 0.0 | 0.00 | 0.00 | 0.00 | 95 | 1011.9 |
| 20260906092412 | 22 | 77 | 0.0 | 0.0 | 0.00 | 0.00 | 0.00 | 95 | 1011.9 |
| 20260906091908 | 22 | 77 | 0.0 | 0.0 | 0.00 | 0.00 | 0.00 | 96 | 1011.8 |
| 20260906091403 | 22 | 84 | 0.0 | 1.6 | 0.00 | 0.00 | 0.00 | 95 | 1012.1 |
| 20260906090900 | 22 | 77 | 0.0 | 1.6 | 0.00 | 0.00 | 0.00 | 96 | 1012.2 |
| 20260906090359 | 22 | 77 | 0.0 | 0.0 | 0.00 | 0.00 | 0.00 | 96 | 1012.4 |
| 20260906085854 | 22 | 77 | 0.0 | 0.0 | 0.00 | 0.00 | 0.00 | 96 | 1012.4 |
| 20260906085353 | 22 | 77 | 0.0 | 0.0 | 0.00 | 0.00 | 0.00 | 96 | 1012.1 |
| 20260906084848 | 22 | 76 | 0.0 | 0.0 | 0.00 | 0.00 | 0.00 | 96 | 1012.4 |
| 20260906084348 | 22 | 77 | 1.6 | 1.6 | 0.00 | 0.00 | 0.00 | 96 | 1012.3 |
| 20260906083843 | 23 | 76 | 0.0 | 0.0 | 0.00 | 0.00 | 0.00 | 96 | 1012.6 |
| 20260906083338 | 23 | 57 | 1.6 | 1.6 | 0.00 | 0.00 | 0.00 | 96 | 1012.6 |
| 20260906082838 | 23 | 89 | 0.0 | 0.0 | 0.00 | 0.00 | 0.00 | 96 | 1012.6 |
| 20260906082333 | 23 | 89 | 0.0 | 0.0 | 0.00 | 0.00 | 0.00 | 95 | 1012.7 |
| 20260906081829 | 23 | 89 | 0.0 | 0.0 | 0.00 | 0.00 | 0.00 | 95 | 1012.9 |
| 20260906081325 | 23 | 89 | 0.0 | 0.0 | 0.00 | 0.00 | 0.00 | 95 | 1012.8 |
| 20260906080821 | 23 | 89 | 0.0 | 0.0 | 0.00 | 0.00 | 0.00 | 95 | 1012.8 |
| 20260906080317 | 23 | 89 | 0.0 | 0.0 | 0.00 | 0.00 | 0.00 | 95 | 1012.7 |
| 20260906075816 | 23 | 89 | 0.0 | 0.0 | 0.00 | 0.00 | 0.00 | 95 | 1013.0 |
| 20260906075315 | 22 | 89 | 0.0 | 0.0 | 0.00 | 0.00 | 0.00 | 96 | 1012.6 |
| 20260906074811 | 22 | 89 | 1.6 | 1.6 | 0.00 | 0.00 | 0.00 | 97 | 1012.8 |
| 20260906074310 | 22 | 49 | 0.0 | 0.0 | 0.00 | 0.00 | 0.00 | 98 | 1013.0 |
| 20260906073809 | 22 | 50 | 1.6 | 1.6 | 0.00 | 0.00 | 0.00 | 98 | 1013.0 |
| 20260906073304 | 22 | 57 | 0.0 | 1.6 | 0.00 | 0.00 | 0.00 | 98 | 1012.9 |
| 20260906072801 | 22 | 57 | 1.6 | 1.6 | 0.00 | 0.00 | 0.00 | 98 | 1012.7 |
| 20260906072256 | 22 | 51 | 0.0 | 1.6 | 0.00 | 0.00 | 0.00 | 98 | 1012.5 |
| 20260906071752 | 22 | 52 | 0.0 | 0.0 | 0.00 | 0.00 | 0.00 | 98 | 1012.2 |
| 20260906071252 | 22 | 67 | 0.0 | 1.6 | 0.00 | 0.00 | 0.00 | 98 | 1012.3 |
| 20260906070749 | 22 | 67 | 0.0 | 0.0 | 0.00 | 0.00 | 0.00 | 98 | 1012.0 |
| 20260906070244 | 22 | 67 | 0.0 | 0.0 | 0.00 | 0.00 | 0.00 | 98 | 1011.8 |
| 20260906065743 | 22 | 67 | 0.0 | 0.0 | 0.00 | 0.00 | 0.00 | 98 | 1011.8 |
| 20260906065239 | 22 | 67 | 0.0 | 0.0 | 0.00 | 0.00 | 0.00 | 98 | 1012.0 |
| 20260906064735 | 22 | 57 | 0.0 | 0.0 | 0.00 | 0.00 | 0.00 | 98 | 1012.0 |
| 20260906064230 | 22 | 77 | 0.0 | 0.0 | 0.00 | 0.00 | 0.00 | 98 | 1012.1 |
| 20260906063725 | 22 | 77 | 0.0 | 0.0 | 0.00 | 0.00 | 0.00 | 98 | 1012.2 |
| 20260906063221 | 22 | 78 | 0.0 | 0.0 | 0.00 | 0.00 | 0.00 | 98 | 1012.5 |
| 20260906062716 | 22 | 78 | 0.0 | 0.0 | 0.00 | 0.00 | 0.00 | 98 | 1012.4 |
| 20260906062215 | 22 | 78 | 0.0 | 0.0 | 0.00 | 0.00 | 0.00 | 98 | 1012.5 |
| 20260906061711 | 22 | 78 | 0.0 | 0.0 | 0.00 | 0.00 | 0.00 | 98 | 1012.4 |
| 20260906061207 | 22 | 78 | 0.0 | 0.0 | 0.00 | 0.00 | 0.00 | 98 | 1012.4 |
| 20260906060702 | 22 | 78 | 0.0 | 1.6 | 0.00 | 0.00 | 0.00 | 98 | 1012.2 |
| 20260906060159 | 22 | 78 | 1.6 | 1.6 | 0.00 | 0.00 | 0.00 | 98 | 1012.2 |
| 20260906055655 | 22 | 77 | 0.0 | 1.6 | 0.00 | 0.00 | 0.00 | 98 | 1012.2 |
| 20260906055150 | 22 | 77 | 0.0 | 1.6 | 0.00 | 0.00 | 0.00 | 98 | 1012.2 |
| 20260906054645 | 22 | 77 | 0.0 | 0.0 | 0.00 | 0.00 | 0.00 | 98 | 1012.3 |
| 20260906054140 | 22 | 77 | 0.0 | 0.0 | 0.00 | 0.00 | 0.00 | 98 | 1012.3 |
| 20260906053637 | 22 | 77 | 0.0 | 0.0 | 0.00 | 0.00 | 0.00 | 98 | 1012.4 |
| 20260906053132 | 22 | 77 | 0.0 | 0.0 | 0.00 | 0.00 | 0.00 | 98 | 1012.4 |
| 20260906052627 | 22 | 77 | 0.0 | 0.0 | 0.00 | 0.00 | 0.00 | 98 | 1012.6 |
| 20260906052124 | 22 | 77 | 0.0 | 0.0 | 0.00 | 0.00 | 0.00 | 98 | 1012.7 |
| 20260906051620 | 22 | 77 | 0.0 | 0.0 | 0.00 | 0.00 | 0.00 | 98 | 1012.8 |
| 20260906051115 | 22 | 77 | 0.0 | 0.0 | 0.00 | 0.00 | 0.00 | 98 | 1012.9 |
| 20260906050610 | 22 | 77 | 0.0 | 0.0 | 0.00 | 0.00 | 0.00 | 98 | 1013.0 |
| 20260906050105 | 22 | 77 | 0.0 | 0.0 | 0.00 | 0.00 | 0.00 | 98 | 1013.2 |
| 20260906045603 | 22 | 77 | 0.0 | 0.0 | 0.00 | 0.00 | 0.00 | 98 | 1013.1 |
| 20260906045059 | 22 | 77 | 0.0 | 0.0 | 0.00 | 0.00 | 0.00 | 98 | 1013.2 |
| 20260906044554 | 22 | 77 | 0.0 | 0.0 | 0.00 | 0.00 | 0.00 | 98 | 1013.2 |
| 20260906044054 | 22 | 77 | 0.0 | 0.0 | 0.00 | 0.00 | 0.00 | 98 | 1013.1 |
| 20260906043551 | 22 | 77 | 0.0 | 0.0 | 0.00 | 0.00 | 0.00 | 98 | 1013.1 |
| 20260906043047 | 22 | 77 | 0.0 | 0.0 | 0.00 | 0.00 | 0.00 | 97 | 1012.9 |
| 20260906042545 | 22 | 77 | 0.0 | 0.0 | 0.00 | 0.00 | 0.00 | 97 | 1013.1 |
| 20260906042040 | 22 | 77 | 0.0 | 0.0 | 0.00 | 0.00 | 0.00 | 97 | 1013.1 |
| 20260906041536 | 22 | 77 | 0.0 | 0.0 | 0.00 | 0.00 | 0.00 | 97 | 1013.3 |
| 20260906041031 | 22 | 77 | 0.0 | 0.0 | 0.00 | 0.00 | 0.00 | 97 | 1013.1 |
| 20260906040526 | 22 | 77 | 0.0 | 0.0 | 0.00 | 0.00 | 0.00 | 97 | 1013.2 |
| 20260906040022 | 22 | 77 | 0.0 | 0.0 | 0.00 | 0.05 | 0.05 | 97 | 1013.2 |
| 20260906035516 | 22 | 77 | 0.0 | 0.0 | 0.00 | 0.05 | 0.05 | 97 | 1013.1 |
| 20260906035012 | 22 | 79 | 1.6 | 1.6 | 0.00 | 0.05 | 0.05 | 97 | 1013.2 |
| 20260906034512 | 22 | 77 | 0.0 | 0.0 | 0.00 | 0.05 | 0.05 | 97 | 1013.2 |
| 20260906034007 | 22 | 77 | 0.0 | 0.0 | 0.00 | 0.05 | 0.05 | 97 | 1013.1 |
| 20260906033502 | 22 | 77 | 0.0 | 0.0 | 0.00 | 0.05 | 0.05 | 97 | 1012.8 |
| 20260906032957 | 22 | 77 | 0.0 | 0.0 | 0.00 | 0.05 | 0.05 | 97 | 1013.0 |
| 20260906032454 | 22 | 77 | 0.0 | 0.0 | 0.00 | 0.05 | 0.05 | 97 | 1012.9 |
| 20260906031954 | 22 | 77 | 0.0 | 0.0 | 0.00 | 0.05 | 0.05 | 97 | 1013.0 |
| 20260906031450 | 22 | 77 | 0.0 | 0.0 | 0.00 | 0.05 | 0.05 | 96 | 1012.9 |
| 20260906030946 | 22 | 77 | 0.0 | 0.0 | 0.00 | 0.05 | 0.05 | 96 | 1012.9 |
| 20260906030440 | 23 | 77 | 0.0 | 0.0 | 0.00 | 0.05 | 0.05 | 96 | 1012.9 |
| 20260906025939 | 23 | 77 | 0.0 | 0.0 | 0.00 | 0.05 | 0.05 | 96 | 1012.9 |
| 20260906025433 | 23 | 77 | 0.0 | 0.0 | 0.00 | 0.05 | 0.05 | 96 | 1012.9 |
| 20260906024932 | 23 | 77 | 0.0 | 0.0 | 0.00 | 0.05 | 0.05 | 96 | 1012.8 |
| 20260906024432 | 23 | 77 | 0.0 | 0.0 | 0.00 | 0.05 | 0.05 | 96 | 1012.8 |
| 20260906023927 | 23 | 77 | 0.0 | 0.0 | 0.00 | 0.05 | 0.05 | 96 | 1012.6 |
| 20260906023424 | 23 | 77 | 0.0 | 0.0 | 0.00 | 0.05 | 0.05 | 96 | 1012.4 |
| 20260906022924 | 23 | 77 | 0.0 | 0.0 | 0.00 | 0.05 | 0.05 | 95 | 1012.7 |
| 20260906022419 | 23 | 77 | 0.0 | 0.0 | 0.00 | 0.05 | 0.05 | 95 | 1012.4 |
| 20260906021915 | 23 | 77 | 0.0 | 0.0 | 0.00 | 0.05 | 0.05 | 95 | 1012.3 |
| 20260906021415 | 23 | 77 | 0.0 | 0.0 | 0.00 | 0.05 | 0.05 | 95 | 1012.4 |
| 20260906020914 | 23 | 77 | 0.0 | 0.0 | 0.00 | 0.05 | 0.05 | 95 | 1012.4 |
| 20260906020409 | 23 | 77 | 0.0 | 0.0 | 0.00 | 0.05 | 0.05 | 95 | 1012.5 |
| 20260906015903 | 23 | 77 | 0.0 | 0.0 | 0.00 | 0.05 | 0.05 | 94 | 1012.3 |
| 20260906015403 | 23 | 77 | 0.0 | 0.0 | 0.00 | 0.05 | 0.05 | 94 | 1012.1 |
| 20260906014903 | 23 | 77 | 0.0 | 0.0 | 0.00 | 0.05 | 0.05 | 94 | 1012.2 |
| 20260906014402 | 23 | 77 | 0.0 | 0.0 | 0.00 | 0.05 | 0.05 | 93 | 1012.2 |
| 20260906013859 | 23 | 77 | 0.0 | 0.0 | 0.00 | 0.05 | 0.05 | 92 | 1012.2 |
| 20260906013354 | 23 | 77 | 0.0 | 0.0 | 0.00 | 0.05 | 0.05 | 92 | 1012.3 |
| 20260906012849 | 24 | 77 | 0.0 | 0.0 | 0.00 | 0.05 | 0.05 | 92 | 1012.1 |
| 20260906012344 | 24 | 77 | 0.0 | 0.0 | 0.00 | 0.05 | 0.05 | 91 | 1012.2 |
| 20260906011844 | 24 | 77 | 0.0 | 0.0 | 0.00 | 0.05 | 0.05 | 91 | 1012.3 |
| 20260906011339 | 24 | 78 | 0.0 | 0.0 | 0.00 | 0.05 | 0.05 | 91 | 1012.3 |
| 20260906010835 | 24 | 65 | 1.6 | 1.6 | 0.00 | 0.05 | 0.05 | 91 | 1012.1 |
| 20260906010331 | 24 | 64 | 0.0 | 0.0 | 0.00 | 0.05 | 0.05 | 91 | 1012.0 |
| 20260906005826 | 25 | 65 | 0.0 | 0.0 | 0.00 | 0.05 | 0.05 | 91 | 1011.9 |
| 20260906005325 | 25 | 65 | 0.0 | 1.6 | 0.00 | 0.05 | 0.05 | 90 | 1011.9 |
| 20260906004824 | 25 | 64 | 0.0 | 0.0 | 0.00 | 0.05 | 0.05 | 90 | 1012.0 |
| 20260906004324 | 25 | 65 | 0.0 | 0.0 | 0.00 | 0.05 | 0.05 | 89 | 1012.1 |
| 20260906003819 | 25 | 64 | 0.0 | 1.6 | 0.00 | 0.05 | 0.05 | 90 | 1012.2 |
| 20260906003315 | 25 | 64 | 0.0 | 0.0 | 0.00 | 0.05 | 0.05 | 89 | 1012.1 |
| 20260906002810 | 25 | 65 | 0.0 | 0.0 | 0.00 | 0.05 | 0.05 | 89 | 1012.4 |
| 20260906002309 | 25 | 65 | 0.0 | 0.0 | 0.00 | 0.05 | 0.05 | 88 | 1012.2 |
| 20260906001805 | 25 | 65 | 0.0 | 0.0 | 0.00 | 0.05 | 0.05 | 89 | 1012.3 |
| 20260906001300 | 25 | 64 | 0.0 | 0.0 | 0.00 | 0.05 | 0.05 | 88 | 1012.1 |
| 20260906000756 | 25 | 65 | 0.0 | 0.0 | 0.00 | 0.05 | 0.05 | 87 | 1012.0 |
| 20260906000256 | 26 | 65 | 0.0 | 0.0 | 0.00 | 0.05 | 0.05 | 85 | 1012.3 |
| 20260905235750 | 26 | 65 | 0.0 | 0.0 | 0.00 | 0.05 | 0.05 | 85 | 1012.3 |
| 20260905235250 | 26 | 65 | 0.0 | 0.0 | 0.00 | 0.05 | 0.05 | 85 | 1012.1 |
| 20260905234746 | 26 | 65 | 0.0 | 0.0 | 0.00 | 0.05 | 0.05 | 83 | 1012.2 |
| 20260905234241 | 26 | 65 | 0.0 | 0.0 | 0.00 | 0.05 | 0.05 | 83 | 1012.1 |
| 20260905233736 | 26 | 65 | 0.0 | 0.0 | 0.00 | 0.05 | 0.05 | 83 | 1012.1 |
| 20260905233235 | 27 | 65 | 0.0 | 0.0 | 0.00 | 0.05 | 0.05 | 83 | 1011.9 |
| 20260905232730 | 27 | 65 | 0.0 | 0.0 | 0.00 | 0.05 | 0.05 | 78 | 1012.0 |
| 20260905232226 | 27 | 62 | 0.0 | 0.0 | 0.00 | 0.05 | 0.05 | 78 | 1011.8 |
| 20260905231721 | 27 | 65 | 0.0 | 0.0 | 0.00 | 0.05 | 0.05 | 79 | 1011.6 |
| 20260905231217 | 27 | 64 | 0.0 | 0.0 | 0.00 | 0.05 | 0.05 | 78 | 1011.5 |
| 20260905230713 | 27 | 69 | 3.2 | 3.2 | 0.00 | 0.05 | 0.05 | 78 | 1011.7 |
| 20260905230211 | 27 | 67 | 1.6 | 1.6 | 0.00 | 0.05 | 0.05 | 81 | 1011.6 |
| 20260905225710 | 27 | 81 | 3.2 | 3.2 | 0.00 | 0.05 | 0.05 | 80 | 1011.6 |
| 20260905225206 | 27 | 79 | 0.0 | 0.0 | 0.00 | 0.05 | 0.05 | 82 | 1012.0 |
| 20260905224705 | 27 | 79 | 0.0 | 0.0 | 0.00 | 0.05 | 0.05 | 82 | 1011.9 |
| 20260905224200 | 27 | 79 | 1.6 | 1.6 | 0.00 | 0.05 | 0.05 | 83 | 1012.1 |
| 20260905223656 | 27 | 79 | 0.0 | 1.6 | 0.00 | 0.05 | 0.05 | 83 | 1012.1 |
| 20260905223153 | 27 | 74 | 1.6 | 1.6 | 0.00 | 0.05 | 0.05 | 81 | 1012.0 |
| 20260905222648 | 27 | 70 | 0.0 | 0.0 | 0.00 | 0.05 | 0.05 | 81 | 1012.1 |
| 20260905222142 | 27 | 67 | 0.0 | 0.0 | 0.00 | 0.05 | 0.05 | 84 | 1012.0 |
| 20260905221638 | 27 | 68 | 0.0 | 1.6 | 0.00 | 0.05 | 0.05 | 83 | 1012.2 |
| 20260905221135 | 27 | 53 | 3.2 | 3.2 | 0.00 | 0.05 | 0.05 | 85 | 1012.1 |
| 20260905220630 | 26 | 58 | 1.6 | 1.6 | 0.00 | 0.05 | 0.05 | 87 | 1012.3 |
| 20260905220126 | 26 | 63 | 0.0 | 0.0 | 0.00 | 0.05 | 0.05 | 87 | 1012.0 |
| 20260905215625 | 26 | 61 | 0.0 | 0.0 | 0.00 | 0.05 | 0.05 | 87 | 1012.3 |
| 20260905215121 | 26 | 66 | 0.0 | 0.0 | 0.00 | 0.05 | 0.05 | 88 | 1012.2 |
| 20260905214618 | 26 | 55 | 0.0 | 0.0 | 0.00 | 0.05 | 0.05 | 89 | 1012.2 |
| 20260905214117 | 26 | 57 | 0.0 | 0.0 | 0.00 | 0.05 | 0.05 | 90 | 1012.4 |
| 20260905213613 | 26 | 52 | 0.0 | 0.0 | 0.00 | 0.05 | 0.05 | 90 | 1012.5 |
| 20260905213108 | 26 | 57 | 0.0 | 0.0 | 0.00 | 0.05 | 0.05 | 91 | 1012.5 |
| 20260905212608 | 26 | 60 | 0.0 | 0.0 | 0.00 | 0.05 | 0.05 | 91 | 1012.6 |
| 20260905212108 | 26 | 53 | 0.0 | 0.0 | 0.00 | 0.05 | 0.05 | 91 | 1012.2 |
| 20260905211603 | 26 | 53 | 0.0 | 0.0 | 0.00 | 0.05 | 0.05 | 89 | 1012.5 |
| 20260905211059 | 26 | 59 | 0.0 | 0.0 | 0.00 | 0.05 | 0.05 | 88 | 1012.4 |
| 20260905210554 | 26 | 59 | 0.0 | 0.0 | 0.00 | 0.05 | 0.05 | 88 | 1012.4 |
| 20260905210049 | 26 | 58 | 0.0 | 0.0 | 0.00 | 0.05 | 0.05 | 85 | 1012.3 |
| 20260905205549 | 26 | 58 | 0.0 | 0.0 | 0.00 | 0.05 | 0.05 | 85 | 1012.5 |
| 20260905205048 | 26 | 51 | 0.0 | 0.0 | 0.00 | 0.05 | 0.05 | 84 | 1012.3 |
| 20260905204543 | 26 | 51 | 0.0 | 0.0 | 0.00 | 0.05 | 0.05 | 84 | 1012.6 |
| 20260905204038 | 26 | 51 | 0.0 | 0.0 | 0.00 | 0.05 | 0.05 | 87 | 1012.7 |
| 20260905203538 | 26 | 60 | 0.0 | 0.0 | 0.00 | 0.05 | 0.05 | 84 | 1012.8 |
| 20260905203033 | 26 | 62 | 0.0 | 0.0 | 0.00 | 0.05 | 0.05 | 83 | 1012.9 |
| 20260905202528 | 26 | 51 | 0.0 | 0.0 | 0.00 | 0.05 | 0.05 | 84 | 1012.8 |
| 20260905202024 | 27 | 50 | 0.0 | 0.0 | 0.00 | 0.05 | 0.05 | 81 | 1012.7 |
| 20260905201520 | 27 | 51 | 0.0 | 0.0 | 0.00 | 0.05 | 0.05 | 78 | 1013.1 |
| 20260905201019 | 26 | 51 | 0.0 | 0.0 | 0.00 | 0.05 | 0.05 | 82 | 1013.5 |
| 20260905200515 | 27 | 51 | 0.0 | 1.6 | 0.00 | 0.05 | 0.05 | 83 | 1013.2 |
| 20260905200015 | 27 | 59 | 0.0 | 0.0 | 0.00 | 0.05 | 0.05 | 75 | 1013.2 |
| 20260905195514 | 27 | 71 | 1.6 | 1.6 | 0.00 | 0.05 | 0.05 | 75 | 1013.2 |
| 20260905195010 | 27 | 73 | 1.6 | 1.6 | 0.00 | 0.05 | 0.05 | 76 | 1013.4 |
| 20260905194510 | 27 | 59 | 0.0 | 0.0 | 0.00 | 0.05 | 0.05 | 78 | 1013.3 |
| 20260905194009 | 27 | 61 | 3.2 | 3.2 | 0.00 | 0.05 | 0.05 | 78 | 1013.0 |
| 20260905193504 | 27 | 34 | 4.8 | 4.8 | 0.00 | 0.05 | 0.05 | 82 | 1013.3 |
| 20260905192959 | 27 | 56 | 3.2 | 3.2 | 0.00 | 0.05 | 0.05 | 83 | 1013.3 |
| 20260905192454 | 26 | 57 | 1.6 | 3.2 | 0.00 | 0.05 | 0.05 | 86 | 1013.7 |
| 20260905191951 | 26 | 62 | 3.2 | 4.8 | 0.13 | 0.05 | 0.05 | 87 | 1013.5 |
| 20260905191450 | 27 | 58 | 1.6 | 1.6 | 0.30 | 0.05 | 0.05 | 86 | 1013.2 |
| 20260905190949 | 28 | 70 | 1.6 | 3.2 | 0.18 | 0.03 | 0.03 | 82 | 1013.2 |
| 20260905190447 | 31 | 65 | 9.7 | 14.5 | 0.00 | 0.00 | 0.00 | 70 | 1013.4 |
| 20260905185946 | 32 | 16 | 11.3 | 14.5 | 0.00 | 0.00 | 0.00 | 63 | 1013.2 |
| 20260905185441 | 32 | 39 | 3.2 | 3.2 | 0.00 | 0.00 | 0.00 | 63 | 1013.1 |
| 20260905184939 | 32 | 51 | 1.6 | 1.6 | 0.00 | 0.00 | 0.00 | 62 | 1012.8 |
| 20260905184434 | 33 | 57 | 1.6 | 1.6 | 0.00 | 0.00 | 0.00 | 61 | 1013.2 |
| 20260905183933 | 33 | 56 | 0.0 | 0.0 | 0.00 | 0.00 | 0.00 | 64 | 1013.3 |
| 20260905183428 | 33 | 57 | 0.0 | 1.6 | 0.00 | 0.00 | 0.00 | 60 | 1013.3 |
| 20260905182923 | 33 | 45 | 3.2 | 4.8 | 0.00 | 0.00 | 0.00 | 60 | 1013.0 |
| 20260905182422 | 33 | 57 | 0.0 | 1.6 | 0.00 | 0.00 | 0.00 | 60 | 1012.6 |
| 20260905181918 | 33 | 52 | 0.0 | 1.6 | 0.00 | 0.00 | 0.00 | 57 | 1012.9 |
| 20260905181413 | 34 | 358 | 1.6 | 1.6 | 0.00 | 0.00 | 0.00 | 55 | 1013.1 |
| 20260905180912 | 35 | 35 | 3.2 | 3.2 | 0.00 | 0.00 | 0.00 | 53 | 1013.3 |
| 20260905180407 | 35 | 58 | 0.0 | 0.0 | 0.00 | 0.00 | 0.00 | 54 | 1013.1 |
| 20260905175906 | 34 | 66 | 1.6 | 3.2 | 0.00 | 0.00 | 0.00 | 53 | 1013.1 |
| 20260905175406 | 35 | 51 | 1.6 | 3.2 | 0.00 | 0.00 | 0.00 | 53 | 1013.1 |
| 20260905174907 | 35 | 43 | 3.2 | 4.8 | 0.00 | 0.00 | 0.00 | 54 | 1013.2 |
| 20260905174403 | 34 | 56 | 1.6 | 1.6 | 0.00 | 0.00 | 0.00 | 55 | 1013.3 |
| 20260905173858 | 35 | 45 | 3.2 | 3.2 | 0.00 | 0.00 | 0.00 | 57 | 1013.6 |
| 20260905173354 | 35 | 67 | 0.0 | 1.6 | 0.00 | 0.00 | 0.00 | 58 | 1013.5 |
| 20260905172849 | 35 | 358 | 3.2 | 3.2 | 0.00 | 0.00 | 0.00 | 57 | 1013.6 |
| 20260905172347 | 35 | 83 | 3.2 | 3.2 | 0.00 | 0.00 | 0.00 | 57 | 1013.3 |
| 20260905171843 | 35 | 60 | 0.0 | 1.6 | 0.00 | 0.00 | 0.00 | 56 | 1013.4 |
| 20260905171340 | 33 | 97 | 1.6 | 3.2 | 0.00 | 0.00 | 0.00 | 55 | 1013.5 |
| 20260905170836 | 34 | 75 | 1.6 | 1.6 | 0.00 | 0.00 | 0.00 | 53 | 1013.6 |
| 20260905170332 | 33 | 61 | 0.0 | 0.0 | 0.00 | 0.00 | 0.00 | 59 | 1014.0 |
| 20260905165831 | 33 | 28 | 3.2 | 3.2 | 0.00 | 0.00 | 0.00 | 58 | 1013.9 |
| 20260905165326 | 33 | 75 | 1.6 | 1.6 | 0.00 | 0.00 | 0.00 | 58 | 1013.8 |
| 20260905164826 | 34 | 25 | 3.2 | 3.2 | 0.00 | 0.00 | 0.00 | 57 | 1013.9 |
| 20260905164321 | 33 | 35 | 3.2 | 3.2 | 0.00 | 0.00 | 0.00 | 59 | 1014.1 |
| 20260905163816 | 34 | 49 | 1.6 | 1.6 | 0.00 | 0.00 | 0.00 | 58 | 1014.1 |
| 20260905163314 | 33 | 53 | 1.6 | 1.6 | 0.00 | 0.00 | 0.00 | 61 | 1014.4 |
| 20260905162809 | 32 | 58 | 0.0 | 0.0 | 0.00 | 0.00 | 0.00 | 65 | 1014.3 |
| 20260905162308 | 32 | 47 | 1.6 | 1.6 | 0.00 | 0.00 | 0.00 | 66 | 1014.4 |
| 20260905161803 | 32 | 55 | 0.0 | 1.6 | 0.00 | 0.00 | 0.00 | 64 | 1014.4 |
| 20260905161302 | 33 | 70 | 1.6 | 1.6 | 0.00 | 0.00 | 0.00 | 61 | 1014.5 |
| 20260905160800 | 32 | 60 | 0.0 | 0.0 | 0.00 | 0.00 | 0.00 | 60 | 1014.4 |
| 20260905160255 | 32 | 44 | 3.2 | 3.2 | 0.00 | 0.00 | 0.00 | 61 | 1014.5 |
| 20260905155750 | 34 | 42 | 1.6 | 3.2 | 0.00 | 0.00 | 0.00 | 58 | 1014.5 |
| 20260905155248 | 33 | 60 | 0.0 | 0.0 | 0.00 | 0.00 | 0.00 | 60 | 1014.5 |
| 20260905154743 | 32 | 63 | 0.0 | 0.0 | 0.00 | 0.00 | 0.00 | 66 | 1014.6 |
| 20260905154239 | 33 | 57 | 0.0 | 1.6 | 0.00 | 0.00 | 0.00 | 62 | 1014.6 |
| 20260905153734 | 32 | 59 | 1.6 | 1.6 | 0.00 | 0.00 | 0.00 | 65 | 1014.8 |
| 20260905153230 | 32 | 59 | 0.0 | 0.0 | 0.00 | 0.00 | 0.00 | 68 | 1014.7 |
| 20260905152725 | 31 | 53 | 0.0 | 0.0 | 0.00 | 0.00 | 0.00 | 70 | 1014.6 |
| 20260905152225 | 31 | 69 | 0.0 | 0.0 | 0.00 | 0.00 | 0.00 | 69 | 1015.0 |
| 20260905151724 | 32 | 71 | 1.6 | 1.6 | 0.00 | 0.00 | 0.00 | 67 | 1014.9 |
| 20260905151221 | 32 | 59 | 3.2 | 3.2 | 0.00 | 0.00 | 0.00 | 66 | 1014.7 |
| 20260905150721 | 32 | 59 | 0.0 | 1.6 | 0.00 | 0.00 | 0.00 | 67 | 1014.8 |
| 20260905150220 | 31 | 65 | 1.6 | 1.6 | 0.00 | 0.00 | 0.00 | 69 | 1014.9 |
| 20260905145718 | 31 | 62 | 1.6 | 1.6 | 0.00 | 0.00 | 0.00 | 69 | 1014.8 |
| 20260905145213 | 31 | 70 | 0.0 | 1.6 | 0.00 | 0.00 | 0.00 | 71 | 1014.8 |
| 20260905144711 | 31 | 84 | 1.6 | 1.6 | 0.00 | 0.00 | 0.00 | 70 | 1014.9 |
| 20260905144212 | 30 | 69 | 1.6 | 1.6 | 0.00 | 0.00 | 0.00 | 70 | 1015.1 |
| 20260905143711 | 31 | 87 | 1.6 | 3.2 | 0.00 | 0.00 | 0.00 | 70 | 1015.0 |
| 20260905143212 | 30 | 63 | 0.0 | 0.0 | 0.00 | 0.00 | 0.00 | 70 | 1015.1 |
| 20260905142705 | 31 | 45 | 0.0 | 1.6 | 0.00 | 0.00 | 0.00 | 68 | 1015.1 |
| 20260905142204 | 30 | 60 | 0.0 | 1.6 | 0.00 | 0.00 | 0.00 | 72 | 1015.1 |
| 20260905141700 | 29 | 59 | 0.0 | 0.0 | 0.00 | 0.00 | 0.00 | 75 | 1015.0 |
| 20260905141156 | 29 | 60 | 1.6 | 1.6 | 0.00 | 0.00 | 0.00 | 77 | 1015.2 |
| 20260905140651 | 28 | 58 | 0.0 | 0.0 | 0.00 | 0.00 | 0.00 | 78 | 1015.3 |
| 20260905140150 | 28 | 43 | 3.2 | 3.2 | 0.00 | 0.00 | 0.00 | 78 | 1015.2 |
| 20260905135645 | 29 | 59 | 0.0 | 0.0 | 0.00 | 0.00 | 0.00 | 77 | 1015.2 |
| 20260905135141 | 28 | 55 | 0.0 | 0.0 | 0.00 | 0.00 | 0.00 | 79 | 1015.0 |
| 20260905134635 | 27 | 55 | 0.0 | 1.6 | 0.00 | 0.00 | 0.00 | 81 | 1015.2 |
| 20260905134134 | 27 | 83 | 3.2 | 3.2 | 0.00 | 0.00 | 0.00 | 83 | 1015.4 |
| 20260905133625 | 27 | 59 | 0.0 | 0.0 | 0.00 | 0.00 | 0.00 | 82 | 1015.4 |
| 20260905133124 | 27 | 90 | 0.0 | 1.6 | 0.00 | 0.00 | 0.00 | 82 | 1015.4 |
| 20260905132624 | 26 | 56 | 0.0 | 0.0 | 0.00 | 0.00 | 0.00 | 84 | 1015.4 |
| 20260905132119 | 26 | 56 | 0.0 | 0.0 | 0.00 | 0.00 | 0.00 | 85 | 1015.5 |
| 20260905131614 | 26 | 56 | 0.0 | 0.0 | 0.00 | 0.00 | 0.00 | 87 | 1015.4 |
| 20260905131109 | 26 | 45 | 0.0 | 0.0 | 0.00 | 0.00 | 0.00 | 86 | 1015.7 |
| 20260905130609 | 26 | 66 | 0.0 | 0.0 | 0.00 | 0.00 | 0.00 | 84 | 1015.6 |
| 20260905130104 | 27 | 63 | 0.0 | 0.0 | 0.00 | 0.00 | 0.00 | 81 | 1015.5 |
| 20260905125603 | 26 | 73 | 0.0 | 0.0 | 0.00 | 0.00 | 0.00 | 82 | 1015.4 |
| 20260905125059 | 26 | 63 | 0.0 | 0.0 | 0.00 | 0.00 | 0.00 | 85 | 1015.3 |
| 20260905124555 | 25 | 66 | 0.0 | 0.0 | 0.00 | 0.00 | 0.00 | 88 | 1015.4 |
| 20260905124051 | 25 | 95 | 3.2 | 3.2 | 0.00 | 0.00 | 0.00 | 88 | 1015.5 |
| 20260905123546 | 26 | 58 | 1.6 | 1.6 | 0.00 | 0.00 | 0.00 | 86 | 1015.1 |
| 20260905123043 | 25 | 58 | 0.0 | 0.0 | 0.00 | 0.00 | 0.00 | 88 | 1015.4 |
| 20260905122542 | 25 | 58 | 0.0 | 0.0 | 0.00 | 0.00 | 0.00 | 89 | 1015.3 |
| 20260905122037 | 24 | 58 | 0.0 | 0.0 | 0.00 | 0.00 | 0.00 | 92 | 1015.3 |
| 20260905121532 | 23 | 58 | 0.0 | 0.0 | 0.00 | 0.00 | 0.00 | 95 | 1015.4 |
| 20260905121027 | 23 | 58 | 0.0 | 0.0 | 0.00 | 0.00 | 0.00 | 96 | 1015.2 |
| 20260905120526 | 23 | 59 | 0.0 | 0.0 | 0.00 | 0.00 | 0.00 | 96 | 1015.2 |
| 20260905120022 | 23 | 58 | 0.0 | 0.0 | 0.00 | 0.00 | 0.00 | 97 | 1015.1 |
| 20260905115520 | 23 | 58 | 0.0 | 0.0 | 0.00 | 0.00 | 0.00 | 98 | 1015.1 |
| 20260905115015 | 22 | 58 | 0.0 | 0.0 | 0.00 | 0.00 | 0.00 | 98 | 1014.9 |
| 20260905114515 | 22 | 58 | 0.0 | 0.0 | 0.00 | 0.00 | 0.00 | 98 | 1015.0 |
| 20260905114014 | 22 | 58 | 0.0 | 0.0 | 0.00 | 0.00 | 0.00 | 98 | 1014.9 |
| 20260905113509 | 22 | 58 | 0.0 | 0.0 | 0.00 | 0.00 | 0.00 | 98 | 1014.8 |
| 20260905113004 | 22 | 57 | 0.0 | 0.0 | 0.00 | 0.00 | 0.00 | 98 | 1014.8 |
| 20260905112459 | 22 | 58 | 0.0 | 0.0 | 0.00 | 0.00 | 0.00 | 98 | 1014.8 |
| 20260905111954 | 22 | 58 | 0.0 | 0.0 | 0.00 | 0.00 | 0.00 | 98 | 1014.5 |
| 20260905111449 | 22 | 58 | 0.0 | 0.0 | 0.00 | 0.00 | 0.00 | 98 | 1014.4 |
| 20260905110949 | 22 | 58 | 0.0 | 0.0 | 0.00 | 0.00 | 0.00 | 98 | 1014.4 |
| 20260905110448 | 22 | 58 | 0.0 | 0.0 | 0.00 | 0.00 | 0.00 | 98 | 1014.1 |
| 20260905105948 | 22 | 58 | 0.0 | 0.0 | 0.00 | 0.00 | 0.00 | 98 | 1014.1 |